Weather History for Crosby, ND

Change the Weather History Date:

Thursday, February 14, 2013

  Actual Average (KISN) Record (KISN)
Temperature  
Mean Temperature 21 °F 16 °F  
Max Temperature 30 °F 27 °F 54 °F (1981)
Min Temperature 12 °F 6 °F -39 °F (1936)
Degree Days  
Heating Degree Days 44 49  
Month to date heating degree days 706  
Since 1 July heating degree days 6127  
Cooling Degree Days 0 0  
Month to date cooling degree days 0  
Year to date cooling degree days 0  
Moisture  
Dew Point 18 °F    
Average Humidity 89    
Maximum Humidity 100    
Minimum Humidity 80    
Precipitation  
Precipitation 0.76 in 0.01 in 0.19 in (1962)
Month to date precipitation 0.17  
Year to date precipitation 0.76  
Sea Level Pressure  
Sea Level Pressure 30.14 in    
Wind  
Wind Speed 16 mph (NW)    
Max Wind Speed 23 mph    
Max Gust Speed 29 mph    
Visibility 8 miles    
Events Rain , Snow    
T = Trace of Precipitation, MM = Missing Value Source: NWS Daily Summary

Daily Weather History Graph

Daily Weather History Graph

Search for Another Location

Airport:

Trip Planner

Search our weather history database for the weather conditions in past years. The results will help you decide how hot, cold, wet, or windy it might be!

Date:

Astronomy

Feb. 14, 2013 Rise Set
Actual Time 8:02 AM CST 6:12 PM CST
Civil Twilight 7:29 AM CST 6:45 PM CST
Nautical Twilight 6:52 AM CST 7:22 PM CST
Astronomical Twilight 6:16 AM CST 7:59 PM CST
Moon 9:36 AM CST (2/14) 11:50 PM CST (2/14)
Length of Visible Light 11h 15m
Length of Day
10h 10m
Waxing Crescent, 22% of the Moon is Illuminated
Feb 14
Waxing Crescent
Feb 17
First Quarter
Feb 25
Full
Mar 4
Last Quarter
Mar 11
New

Hourly Weather History & Observations

Time (CST) Temp. Windchill Dew Point Humidity Pressure Visibility Wind Dir Wind Speed Gust Speed Precip Events Conditions
12:15 AM 28.4 °F 15.4 °F 28.4 °F 100% 29.74 in 8.0 mi WNW 19.6 mph - 0.07 in Snow Light Snow
12:35 AM 28.4 °F 14.7 °F 28.4 °F 100% 29.74 in 1.5 mi WNW 21.9 mph 26.5 mph 0.16 in Snow Light Snow
12:55 AM 30.2 °F 16.8 °F 28.4 °F 93% 29.75 in 3.0 mi NW 23.0 mph 28.8 mph 0.16 in   Overcast
1:15 AM 28.4 °F 15.4 °F 28.4 °F 100% 29.76 in 8.0 mi NW 19.6 mph - N/A Rain Light Freezing Rain
1:35 AM 26.6 °F 13.1 °F 26.6 °F 100% 29.78 in 10.0 mi NE 19.6 mph - N/A   Overcast
1:55 AM 24.8 °F 9.6 °F 24.8 °F 100% 29.80 in 4.0 mi NE 23.0 mph - N/A Rain Light Freezing Rain
2:15 AM 24.8 °F 10.3 °F 23.0 °F 93% 29.83 in 3.0 mi NE 20.7 mph 28.8 mph N/A Rain Light Freezing Rain
2:35 AM 24.8 °F 11.1 °F 23.0 °F 93% 29.86 in 3.0 mi NNE 18.4 mph - 0.02 in Snow Light Snow
2:55 AM 24.8 °F 10.7 °F 23.0 °F 93% 29.88 in 2.0 mi NNE 19.6 mph - 0.07 in Rain Light Freezing Rain
3:15 AM 24.8 °F 10.3 °F 23.0 °F 93% 29.91 in 1.2 mi NNE 20.7 mph 25.3 mph 0.08 in Rain Light Freezing Rain
3:35 AM 23.0 °F 9.2 °F 23.0 °F 100% 29.94 in 2.0 mi NNE 17.3 mph 25.3 mph 0.17 in Rain Light Freezing Rain
3:55 AM 23.0 °F 7.2 °F 23.0 °F 100% 29.95 in 2.0 mi North 23.0 mph 28.8 mph 0.21 in Rain Light Freezing Rain
4:15 AM 21.2 °F 5.6 °F 19.4 °F 93% 29.97 in 2.5 mi North 20.7 mph - 0.02 in Snow Light Snow
4:35 AM 21.2 °F 6.4 °F 19.4 °F 93% 30.00 in 4.0 mi North 18.4 mph - 0.04 in Snow Light Snow
4:55 AM 21.2 °F 6.0 °F 17.6 °F 86% 30.02 in 10.0 mi North 19.6 mph - 0.04 in   Overcast
5:15 AM 19.4 °F 5.0 °F 17.6 °F 93% 30.04 in 10.0 mi North 16.1 mph - N/A   Overcast
5:35 AM 19.4 °F 3.6 °F 17.6 °F 93% 30.05 in 10.0 mi North 19.6 mph - N/A   Overcast
5:55 AM 19.4 °F 4.5 °F 17.6 °F 93% 30.07 in 10.0 mi North 17.3 mph - N/A   Overcast
6:15 AM 19.4 °F 4.5 °F 17.6 °F 93% 30.08 in 10.0 mi North 17.3 mph - N/A   Overcast
6:35 AM 19.4 °F 4.1 °F 15.8 °F 86% 30.10 in 10.0 mi North 18.4 mph 23.0 mph N/A   Overcast
6:55 AM 17.6 °F 3.2 °F 15.8 °F 93% 30.11 in 10.0 mi North 15.0 mph - N/A   Overcast
7:15 AM 17.6 °F 5.7 °F 14.0 °F 86% 30.12 in 10.0 mi North 10.4 mph - N/A   Overcast
7:35 AM 17.6 °F 5.7 °F 14.0 °F 86% 30.13 in 10.0 mi North 10.4 mph - N/A   Overcast
7:55 AM 17.6 °F 7.3 °F 15.8 °F 93% 30.14 in 10.0 mi North 8.1 mph - N/A   Overcast
8:15 AM 17.6 °F 10.7 °F 14.0 °F 86% 30.15 in 10.0 mi NNW 4.6 mph - N/A   Overcast
8:35 AM 17.6 °F 10.7 °F 14.0 °F 86% 30.16 in 10.0 mi North 4.6 mph - N/A   Overcast
8:55 AM 17.6 °F 5.0 °F 15.8 °F 93% 30.17 in 10.0 mi NNW 11.5 mph - N/A Snow Light Snow
9:15 AM 19.4 °F 6.0 °F 15.8 °F 86% 30.18 in 10.0 mi NNW 13.8 mph - N/A Snow Light Snow
9:35 AM 19.4 °F 7.2 °F 15.8 °F 86% 30.18 in 8.0 mi NNW 11.5 mph - N/A Snow Light Snow
9:55 AM 19.4 °F 7.9 °F 15.8 °F 86% 30.19 in 10.0 mi NNW 10.4 mph - 0.01 in Snow Light Snow
10:15 AM 19.4 °F 10.4 °F 17.6 °F 93% 30.20 in 10.0 mi NW 6.9 mph - N/A Snow Light Snow
10:35 AM 19.4 °F 6.6 °F 17.6 °F 93% 30.21 in 10.0 mi NW 12.7 mph - N/A Snow Light Snow
10:55 AM 19.4 °F 6.6 °F 15.8 °F 86% 30.21 in 10.0 mi NW 12.7 mph - N/A Snow Light Snow
11:15 AM 19.4 °F 6.0 °F 17.6 °F 93% 30.21 in 10.0 mi NW 13.8 mph - N/A   Mostly Cloudy
11:35 AM 19.4 °F 6.0 °F 17.6 °F 93% 30.22 in 10.0 mi NW 13.8 mph - N/A   Mostly Cloudy
11:55 AM 21.2 °F 11.7 °F 17.6 °F 86% 30.22 in 10.0 mi NW 8.1 mph - N/A Snow Light Snow
12:15 PM 21.2 °F 8.9 °F 17.6 °F 86% 30.23 in 10.0 mi NW 12.7 mph - N/A   Overcast
12:35 PM 23.0 °F 10.1 °F 17.6 °F 80% 30.23 in 10.0 mi WNW 15.0 mph - N/A   Overcast
12:55 PM 23.0 °F 10.1 °F 17.6 °F 80% 30.23 in 10.0 mi NW 15.0 mph - N/A Rain Light Freezing Rain
1:15 PM 23.0 °F 11.7 °F 17.6 °F 80% 30.23 in 2.5 mi WNW 11.5 mph - 0.12 in Snow Light Snow
1:35 PM 23.0 °F 11.7 °F 17.6 °F 80% 30.23 in 8.0 mi WNW 11.5 mph - 0.13 in Snow Light Snow
1:55 PM 23.0 °F 13.1 °F 19.4 °F 86% 30.23 in 8.0 mi WNW 9.2 mph - 0.15 in Snow Light Snow
2:15 PM 23.0 °F 11.7 °F 19.4 °F 86% 30.23 in 10.0 mi West 11.5 mph - N/A Snow Light Snow
2:35 PM 24.8 °F 13.4 °F 19.4 °F 80% 30.23 in 10.0 mi WNW 12.7 mph - N/A Snow Light Snow
2:55 PM 24.8 °F 12.9 °F 21.2 °F 86% 30.23 in 10.0 mi WNW 13.8 mph - N/A   Overcast
3:15 PM 24.8 °F 11.5 °F 21.2 °F 86% 30.23 in 3.0 mi NW 17.3 mph - 0.04 in Snow Light Snow
3:35 PM 24.8 °F 11.9 °F 21.2 °F 86% 30.23 in 7.0 mi NW 16.1 mph - 0.09 in Snow Light Snow
3:55 PM 23.0 °F 10.1 °F 19.4 °F 86% 30.23 in 8.0 mi NNW 15.0 mph - 0.11 in Snow Light Snow
4:15 PM 23.0 °F 10.1 °F 19.4 °F 86% 30.24 in 10.0 mi NNW 15.0 mph - N/A Snow Light Snow
4:35 PM 21.2 °F 6.0 °F 17.6 °F 86% 30.25 in 10.0 mi NNW 19.6 mph - N/A Rain Light Freezing Rain
4:55 PM 21.2 °F 7.3 °F 15.8 °F 80% 30.25 in 10.0 mi NNW 16.1 mph - N/A Snow Light Snow
5:15 PM 19.4 °F 4.5 °F 15.8 °F 86% 30.25 in 10.0 mi NW 17.3 mph - N/A Snow Light Snow
5:35 PM 19.4 °F 5.0 °F 15.8 °F 86% 30.25 in 10.0 mi NW 16.1 mph - N/A   Mostly Cloudy
5:55 PM 17.6 °F 4.3 °F 14.0 °F 86% 30.25 in 10.0 mi NW 12.7 mph - N/A   Scattered Clouds
6:15 PM 17.6 °F 4.3 °F 14.0 °F 86% 30.26 in 10.0 mi NW 12.7 mph - N/A   Overcast
6:35 PM 17.6 °F 5.7 °F 14.0 °F 86% 30.26 in 10.0 mi NW 10.4 mph - N/A   Overcast
6:55 PM 17.6 °F 8.2 °F 14.0 °F 86% 30.26 in 10.0 mi NW 6.9 mph - N/A   Overcast
7:15 PM 17.6 °F 10.7 °F 14.0 °F 86% 30.26 in 10.0 mi NW 4.6 mph - N/A   Overcast
7:35 PM 15.8 °F 8.6 °F 14.0 °F 93% 30.26 in 10.0 mi WSW 4.6 mph - N/A   Overcast
7:55 PM 14.0 °F 3.9 °F 12.2 °F 93% 30.26 in 10.0 mi WSW 6.9 mph - N/A   Partly Cloudy
8:15 PM 14.0 °F 5.1 °F 10.4 °F 86% 30.26 in 10.0 mi SW 5.8 mph - N/A   Clear
8:35 PM 12.2 °F 4.3 °F 8.6 °F 85% 30.26 in 10.0 mi WSW 4.6 mph - N/A   Mostly Cloudy
8:55 PM 14.0 °F 6.5 °F 10.4 °F 86% 30.25 in 10.0 mi West 4.6 mph - N/A   Overcast
9:15 PM 14.0 °F 2.9 °F 10.4 °F 86% 30.25 in 10.0 mi WNW 8.1 mph - N/A   Overcast
9:35 PM 17.6 °F 6.4 °F 14.0 °F 86% 30.25 in 10.0 mi WNW 9.2 mph - N/A   Overcast
9:55 PM 17.6 °F 6.4 °F 14.0 °F 86% 30.24 in 10.0 mi WNW 9.2 mph - N/A   Overcast
10:15 PM 17.6 °F 5.0 °F 14.0 °F 86% 30.24 in 10.0 mi WNW 11.5 mph - N/A   Overcast
10:35 PM 17.6 °F 5.7 °F 14.0 °F 86% 30.24 in 10.0 mi WNW 10.4 mph - N/A   Overcast
10:55 PM 19.4 °F 7.2 °F 15.8 °F 86% 30.24 in 10.0 mi NW 11.5 mph - N/A Snow Light Snow
11:15 PM 19.4 °F 7.9 °F 15.8 °F 86% 30.24 in 10.0 mi WNW 10.4 mph - N/A Snow Light Snow
11:35 PM 19.4 °F 9.5 °F 15.8 °F 86% 30.25 in 10.0 mi NW 8.1 mph - N/A Snow Light Snow
11:55 PM 19.4 °F 9.5 °F 15.8 °F 86% 30.25 in 7.0 mi WNW 8.1 mph - 0.01 in Snow Light Snow